Home > Weather > Alta > Past weeks

Flag for Norway Past Weather in Alta, Norway — Yesterday and Last 2 Weeks

Now
55 °F

Cool.


Feels Like: 55 °F
Forecast: 53 / 64 °F
Wind: 1 mph from Northeast

Location: Alta Lufthavn

Current Time: Jul 28, 2016 at 3:05:26 AM

Latest Report: Jul 28, 2016 at 2:00 AM


Visibility: N/A

Pressure: 29.88 "Hg

Humidity: 95%

Dew Point: 53 °F

Location of AltaLocation

Past Weather in Alta — Graph

°F

Alta Temperature Yesterday

Maximum temperature yesterday: 60 °F (at 2:00 PM)
Minimum temperature yesterday: 56 °F (at 9:00 PM)
Average temperature yesterday: 58 °F

High & Low Weather Summary for the Past Weeks

 TemperatureHumidityPressure
High82 °F (Jul 23, 1:00 PM)95% (Jul 27, 8:00 PM)30.22 "Hg (Jul 27, 8:00 PM)
Low45 °F (Jul 16, 2:00 AM)33% (Jul 23, 10:00 AM)29.41 "Hg (Jul 17, 9:00 AM)
Average58 °F74%29.91 "Hg
* Reported Jul 13 2:00 AM — Jul 28 2:00 AM, Alta, Weather by CustomWeather, © 2016

Note: Actual official high and low records may vary slightly from our data, if they occured in-between our weather recording intervals... More about our weather records

Advertising

Alta Weather History for the Previous 24 Hours

Scroll right to see more
 ConditionsComfort  
Time TempWeatherWind HumidityBarometerVisibility
2:00 AM
Thu, Jul 28
55 °FCool.1 mph95%29.88 "HgN/A
1:00 AM55 °FCool.No wind95%29.88 "HgN/A
12:00 AM56 °FCool.2 mph94%29.87 "HgN/A
11:00 PM
Wed, Jul 27
56 °FCool.2 mph94%29.86 "HgN/A
10:00 PM57 °FCool.1 mph93%29.86 "HgN/A
9:00 PM56 °FCool.1 mph93%29.85 "HgN/A
8:00 PM57 °FCool.1 mph95%29.85 "HgN/A
7:00 PM57 °FCool.1 mph93%29.85 "HgN/A
6:00 PM58 °FCool.1 mph91%29.85 "HgN/A
5:00 PM58 °FCool.1 mph90%29.84 "HgN/A
4:00 PM58 °FCool.2 mph89%29.85 "HgN/A
3:00 PM59 °FCool.3 mph84%29.85 "HgN/A
2:00 PM60 °FCool.2 mph77%29.85 "HgN/A
1:00 PM59 °FCool.2 mph78%29.86 "HgN/A
12:00 PM60 °FCool.5 mph76%29.87 "HgN/A
11:00 AM59 °FCool.5 mph77%29.87 "HgN/A
10:00 AM59 °FCool.3 mph77%29.88 "HgN/A
9:00 AM58 °FCool.3 mph77%29.88 "HgN/A
8:00 AM58 °FCool.3 mph78%29.88 "HgN/A
7:00 AM58 °FCool.3 mph79%29.89 "HgN/A
6:00 AM57 °FCool.3 mph80%29.89 "HgN/A
5:00 AM57 °FCool.5 mph80%29.90 "HgN/A
4:00 AM57 °FCool.7 mph81%29.90 "HgN/A
3:00 AM57 °FCool.3 mph83%29.90 "HgN/A
Weather by CustomWeather, © 2016

See weather overviewHow to use our weather pages